| time (UTC) | temp F | wind direction | speed knots | gust knots | rain 1hr in | rain 24hr in | rain mn in | humidity % | barometer mb |
| 20260504175503 | 71 | 275 | 4.3 | 17.4 | 0.00 | 0.00 | 0.00 | 28 | 1009.3 |
| 20260504175003 | 70 | 305 | 5.2 | 17.4 | 0.00 | 0.00 | 0.00 | 30 | 1009.3 |
| 20260504174503 | 70 | 295 | 5.2 | 13.9 | 0.00 | 0.00 | 0.00 | 28 | 1009.6 |
| 20260504174003 | 71 | 277 | 5.2 | 17.4 | 0.00 | 0.00 | 0.00 | 28 | 1009.3 |
| 20260504173503 | 71 | 293 | 4.3 | 17.4 | 0.00 | 0.00 | 0.00 | 28 | 1009.6 |
| 20260504173003 | 71 | 268 | 4.3 | 26.1 | 0.00 | 0.00 | 0.00 | 28 | 1009.6 |
| 20260504172503 | 70 | 240 | 4.3 | 26.1 | 0.00 | 0.00 | 0.00 | 29 | 1009.6 |
| 20260504172003 | 70 | 251 | 4.3 | 17.4 | 0.00 | 0.00 | 0.00 | 29 | 1009.6 |
| 20260504171503 | 70 | 291 | 5.2 | 17.4 | 0.00 | 0.00 | 0.00 | 28 | 1009.6 |
| 20260504171003 | 69 | 303 | 6.1 | 21.7 | 0.00 | 0.00 | 0.00 | 29 | 1009.6 |
| 20260504170503 | 69 | 353 | 7.0 | 21.7 | 0.00 | 0.00 | 0.00 | 29 | 1009.6 |
| 20260504151003 | 67 | 300 | 6.1 | 14.8 | 0.00 | 0.00 | 0.00 | 29 | 1011.3 |
| 20260504150503 | 67 | 307 | 6.1 | 14.8 | 0.00 | 0.00 | 0.00 | 30 | 1011.3 |
| 20260504141003 | 64 | 257 | 5.2 | 17.4 | 0.00 | 0.00 | 0.00 | 31 | 1011.6 |
| 20260504140504 | 64 | 243 | 4.3 | 17.4 | 0.00 | 0.00 | 0.00 | 32 | 1011.6 |
| 20260504130503 | 60 | 275 | 2.6 | 10.4 | 0.00 | 0.00 | 0.00 | 41 | 1012.7 |
| 20260504110503 | 44 | 0 | 0.0 | 0.0 | 0.00 | 0.00 | 0.00 | 67 | 1012.7 |
| 20260504100503 | 40 | 16 | 0.0 | 2.6 | 0.00 | 0.00 | 0.00 | 76 | 1012.7 |
| 20260504082003 | 38 | 0 | 0.0 | 0.0 | 0.00 | 0.00 | 0.00 | 81 | 1012.3 |
| 20260504081503 | 38 | 256 | 0.0 | 1.7 | 0.00 | 0.00 | 0.00 | 81 | 1012.3 |
| 20260504081003 | 38 | 256 | 0.0 | 1.7 | 0.00 | 0.00 | 0.00 | 81 | 1012.3 |
| 20260504080503 | 39 | 256 | 0.0 | 1.7 | 0.00 | 0.00 | 0.00 | 78 | 1012.0 |
| 20260504050503 | 38 | 0 | 0.0 | 0.0 | 0.00 | 0.00 | 0.00 | 81 | 1011.6 |
| 20260504050003 | 38 | 0 | 0.0 | 0.0 | 0.00 | 0.00 | 0.00 | 81 | 1012.0 |
| 20260504045503 | 38 | 0 | 0.0 | 0.0 | 0.00 | 0.00 | 0.00 | 81 | 1012.0 |
| 20260504045003 | 38 | 0 | 0.0 | 0.0 | 0.00 | 0.00 | 0.00 | 81 | 1012.0 |
| 20260504044504 | 38 | 0 | 0.0 | 0.0 | 0.00 | 0.00 | 0.00 | 81 | 1011.6 |
| 20260504044003 | 38 | 0 | 0.0 | 0.0 | 0.00 | 0.00 | 0.00 | 81 | 1012.0 |
| 20260504043503 | 38 | 0 | 0.0 | 0.0 | 0.00 | 0.00 | 0.00 | 82 | 1012.0 |
| 20260504043003 | 38 | 0 | 0.0 | 0.0 | 0.00 | 0.00 | 0.00 | 83 | 1012.0 |
| 20260504042503 | 38 | 0 | 0.0 | 0.0 | 0.00 | 0.00 | 0.00 | 82 | 1012.0 |
| 20260504042003 | 38 | 0 | 0.0 | 0.0 | 0.00 | 0.00 | 0.00 | 81 | 1012.0 |
| 20260504041503 | 39 | 0 | 0.0 | 0.0 | 0.00 | 0.00 | 0.00 | 79 | 1011.6 |
| 20260504041003 | 39 | 0 | 0.0 | 0.0 | 0.00 | 0.00 | 0.00 | 78 | 1011.6 |
| 20260504040503 | 39 | 0 | 0.0 | 0.0 | 0.00 | 0.00 | 0.00 | 78 | 1011.6 |
| 20260504040004 | 39 | 0 | 0.0 | 0.0 | 0.00 | 0.00 | 0.00 | 77 | 1011.6 |
| 20260504035503 | 39 | 0 | 0.0 | 0.0 | 0.00 | 0.00 | 0.00 | 78 | 1011.6 |
| 20260504035003 | 39 | 0 | 0.0 | 0.0 | 0.00 | 0.00 | 0.00 | 79 | 1011.6 |
| 20260504034503 | 40 | 0 | 0.0 | 0.0 | 0.00 | 0.00 | 0.00 | 76 | 1011.6 |
| 20260504034003 | 40 | 0 | 0.0 | 0.0 | 0.00 | 0.00 | 0.00 | 76 | 1011.6 |
| 20260504033503 | 40 | 0 | 0.0 | 0.0 | 0.00 | 0.00 | 0.00 | 76 | 1011.6 |
| 20260504033003 | 40 | 0 | 0.0 | 0.0 | 0.00 | 0.00 | 0.00 | 73 | 1011.6 |
| 20260504032503 | 40 | 0 | 0.0 | 0.0 | 0.00 | 0.00 | 0.00 | 73 | 1011.6 |
| 20260504032003 | 40 | 0 | 0.0 | 0.0 | 0.00 | 0.00 | 0.00 | 73 | 1011.6 |
| 20260504031503 | 40 | 0 | 0.0 | 0.0 | 0.00 | 0.00 | 0.00 | 73 | 1011.3 |
| 20260504031003 | 41 | 0 | 0.0 | 0.0 | 0.00 | 0.00 | 0.00 | 72 | 1011.6 |
| 20260504030503 | 40 | 0 | 0.0 | 0.0 | 0.00 | 0.00 | 0.00 | 72 | 1011.6 |
| 20260504030003 | 40 | 0 | 0.0 | 0.0 | 0.00 | 0.00 | 0.00 | 72 | 1011.6 |
| 20260504025503 | 40 | 0 | 0.0 | 0.0 | 0.00 | 0.00 | 0.00 | 72 | 1011.6 |
| 20260504025003 | 40 | 0 | 0.0 | 0.0 | 0.00 | 0.00 | 0.00 | 72 | 1011.3 |
| 20260504024503 | 40 | 0 | 0.0 | 0.0 | 0.00 | 0.00 | 0.00 | 72 | 1011.3 |
| 20260504024003 | 41 | 0 | 0.0 | 0.0 | 0.00 | 0.00 | 0.00 | 69 | 1011.3 |
| 20260504023503 | 41 | 0 | 0.0 | 0.0 | 0.00 | 0.00 | 0.00 | 69 | 1011.6 |
| 20260504023003 | 41 | 0 | 0.0 | 0.0 | 0.00 | 0.00 | 0.00 | 69 | 1011.3 |
| 20260504022503 | 42 | 0 | 0.0 | 0.0 | 0.00 | 0.00 | 0.00 | 66 | 1011.3 |
| 20260504022003 | 42 | 0 | 0.0 | 0.0 | 0.00 | 0.00 | 0.00 | 66 | 1011.3 |
| 20260504021504 | 42 | 0 | 0.0 | 0.0 | 0.00 | 0.00 | 0.00 | 66 | 1011.3 |
| 20260504021003 | 42 | 0 | 0.0 | 0.0 | 0.00 | 0.00 | 0.00 | 66 | 1011.3 |
| 20260504020503 | 42 | 0 | 0.0 | 0.0 | 0.00 | 0.00 | 0.00 | 66 | 1011.3 |
| 20260504020004 | 43 | 0 | 0.0 | 0.0 | 0.00 | 0.00 | 0.00 | 63 | 1011.3 |
| 20260504015503 | 43 | 0 | 0.0 | 0.0 | 0.00 | 0.00 | 0.00 | 63 | 1011.3 |
| 20260504015003 | 43 | 0 | 0.0 | 0.0 | 0.00 | 0.00 | 0.00 | 62 | 1011.3 |
| 20260504014503 | 44 | 0 | 0.0 | 0.0 | 0.00 | 0.00 | 0.00 | 61 | 1011.3 |
| 20260504014003 | 44 | 0 | 0.0 | 0.0 | 0.00 | 0.00 | 0.00 | 60 | 1011.3 |
| 20260504013503 | 45 | 0 | 0.0 | 0.0 | 0.00 | 0.00 | 0.00 | 59 | 1011.0 |
| 20260504013003 | 45 | 0 | 0.0 | 0.0 | 0.00 | 0.00 | 0.00 | 58 | 1011.0 |
| 20260504012503 | 45 | 0 | 0.0 | 0.0 | 0.00 | 0.00 | 0.00 | 57 | 1010.6 |
| 20260504012003 | 46 | 0 | 0.0 | 0.0 | 0.00 | 0.00 | 0.00 | 58 | 1010.6 |
| 20260504011503 | 46 | 0 | 0.0 | 0.0 | 0.00 | 0.00 | 0.00 | 58 | 1010.6 |
| 20260504011003 | 47 | 0 | 0.0 | 0.0 | 0.00 | 0.00 | 0.00 | 56 | 1010.6 |
| 20260504010503 | 47 | 0 | 0.0 | 0.0 | 0.00 | 0.00 | 0.00 | 55 | 1010.6 |
| 20260504010003 | 47 | 0 | 0.0 | 0.0 | 0.00 | 0.00 | 0.00 | 54 | 1010.6 |
| 20260504005503 | 47 | 0 | 0.0 | 0.0 | 0.00 | 0.00 | 0.00 | 54 | 1010.6 |
| 20260504005004 | 48 | 0 | 0.0 | 0.0 | 0.00 | 0.00 | 0.00 | 55 | 1010.6 |
| 20260504004503 | 48 | 0 | 0.0 | 0.0 | 0.00 | 0.00 | 0.00 | 52 | 1010.3 |
| 20260504004003 | 48 | 0 | 0.0 | 0.0 | 0.00 | 0.00 | 0.00 | 50 | 1010.3 |
| 20260504003503 | 48 | 227 | 0.0 | 1.7 | 0.00 | 0.00 | 0.00 | 48 | 1010.3 |
| 20260504003003 | 49 | 227 | 0.0 | 1.7 | 0.00 | 0.00 | 0.00 | 48 | 1010.3 |
| 20260504002503 | 49 | 165 | 0.0 | 1.7 | 0.00 | 0.00 | 0.00 | 46 | 1009.9 |
| 20260504002003 | 50 | 146 | 0.0 | 1.7 | 0.00 | 0.00 | 0.00 | 45 | 1009.6 |
| 20260504001503 | 50 | 114 | 0.0 | 1.7 | 0.00 | 0.00 | 0.00 | 45 | 1009.9 |
| 20260504001003 | 50 | 127 | 0.0 | 1.7 | 0.00 | 0.00 | 0.00 | 45 | 1009.9 |
| 20260504000503 | 50 | 131 | 0.0 | 1.7 | 0.00 | 0.00 | 0.00 | 44 | 1009.6 |
| 20260504000003 | 50 | 0 | 0.0 | 0.0 | 0.00 | 0.00 | 0.00 | 42 | 1009.6 |
| 20260503235503 | 51 | 114 | 0.0 | 2.6 | 0.00 | 0.00 | 0.00 | 39 | 1009.6 |
| 20260503235003 | 52 | 105 | 0.9 | 2.6 | 0.00 | 0.00 | 0.00 | 37 | 1009.3 |
| 20260503234503 | 53 | 103 | 1.7 | 2.6 | 0.00 | 0.00 | 0.00 | 33 | 1009.6 |
| 20260503234003 | 53 | 44 | 2.6 | 3.5 | 0.00 | 0.00 | 0.00 | 33 | 1009.3 |
| 20260503233503 | 53 | 343 | 2.6 | 3.5 | 0.00 | 0.00 | 0.00 | 33 | 1009.6 |
| 20260503233003 | 54 | 289 | 0.9 | 3.5 | 0.00 | 0.00 | 0.00 | 32 | 1009.6 |
| 20260503232503 | 54 | 250 | 0.9 | 2.6 | 0.00 | 0.00 | 0.00 | 32 | 1009.3 |
| 20260503232003 | 54 | 243 | 1.7 | 2.6 | 0.00 | 0.00 | 0.00 | 32 | 1009.6 |
| 20260503231503 | 55 | 66 | 0.9 | 4.3 | 0.00 | 0.00 | 0.00 | 31 | 1009.3 |
| 20260503231003 | 55 | 297 | 0.9 | 4.3 | 0.00 | 0.00 | 0.00 | 30 | 1008.9 |
| 20260503230503 | 55 | 223 | 1.7 | 6.1 | 0.00 | 0.00 | 0.00 | 30 | 1009.3 |
| 20260503230003 | 55 | 204 | 2.6 | 6.1 | 0.00 | 0.00 | 0.00 | 30 | 1009.3 |
| 20260503225503 | 56 | 300 | 2.6 | 6.1 | 0.00 | 0.00 | 0.00 | 30 | 1009.3 |
| 20260503225003 | 56 | 317 | 1.7 | 6.1 | 0.00 | 0.00 | 0.00 | 30 | 1009.3 |
| 20260503224503 | 56 | 237 | 1.7 | 8.7 | 0.00 | 0.00 | 0.00 | 30 | 1009.3 |
| 20260503224004 | 56 | 6 | 3.5 | 14.8 | 0.00 | 0.00 | 0.00 | 29 | 1008.9 |
| 20260503223503 | 56 | 356 | 4.3 | 14.8 | 0.00 | 0.00 | 0.00 | 30 | 1008.9 |
| 20260503223003 | 56 | 318 | 4.3 | 11.3 | 0.00 | 0.00 | 0.00 | 29 | 1008.9 |
| 20260503222503 | 56 | 302 | 4.3 | 13.9 | 0.00 | 0.00 | 0.00 | 29 | 1009.3 |
| 20260503222003 | 57 | 299 | 4.3 | 13.9 | 0.00 | 0.00 | 0.00 | 29 | 1008.9 |
| 20260503221503 | 57 | 299 | 4.3 | 15.6 | 0.00 | 0.00 | 0.00 | 28 | 1008.9 |
| 20260503221003 | 56 | 309 | 4.3 | 15.6 | 0.00 | 0.00 | 0.00 | 29 | 1008.6 |
| 20260503220503 | 56 | 304 | 4.3 | 15.6 | 0.00 | 0.00 | 0.00 | 29 | 1008.9 |
| 20260503220003 | 57 | 262 | 2.6 | 8.7 | 0.00 | 0.00 | 0.00 | 29 | 1008.9 |
| 20260503215503 | 58 | 346 | 2.6 | 8.7 | 0.00 | 0.00 | 0.00 | 28 | 1008.9 |
| 20260503215003 | 57 | 315 | 3.5 | 13.0 | 0.00 | 0.00 | 0.00 | 29 | 1008.9 |
| 20260503214503 | 56 | 316 | 4.3 | 15.6 | 0.00 | 0.00 | 0.00 | 30 | 1009.3 |
| 20260503214003 | 56 | 327 | 3.5 | 15.6 | 0.00 | 0.00 | 0.00 | 30 | 1009.3 |
| 20260503213503 | 56 | 37 | 3.5 | 13.0 | 0.00 | 0.00 | 0.00 | 30 | 1008.9 |
| 20260503213003 | 57 | 284 | 4.3 | 12.2 | 0.00 | 0.00 | 0.00 | 30 | 1009.3 |
| 20260503212503 | 56 | 288 | 5.2 | 12.2 | 0.00 | 0.00 | 0.00 | 30 | 1009.3 |
| 20260503212003 | 56 | 312 | 5.2 | 24.3 | 0.00 | 0.00 | 0.00 | 29 | 1008.9 |
| 20260503211503 | 56 | 304 | 5.2 | 24.3 | 0.00 | 0.00 | 0.00 | 29 | 1008.9 |
| 20260503211003 | 55 | 303 | 5.2 | 13.0 | 0.00 | 0.00 | 0.00 | 30 | 1008.9 |
| 20260503210503 | 56 | 325 | 6.1 | 17.4 | 0.00 | 0.00 | 0.00 | 30 | 1008.9 |
| 20260503210004 | 55 | 329 | 7.0 | 17.4 | 0.00 | 0.00 | 0.00 | 30 | 1008.9 |
| 20260503205503 | 56 | 322 | 7.0 | 25.2 | 0.00 | 0.00 | 0.00 | 30 | 1008.9 |
| 20260503205003 | 56 | 298 | 6.1 | 25.2 | 0.00 | 0.00 | 0.00 | 29 | 1008.9 |
| 20260503204503 | 56 | 286 | 5.2 | 13.0 | 0.00 | 0.00 | 0.00 | 30 | 1008.9 |
| 20260503204003 | 57 | 332 | 5.2 | 20.9 | 0.00 | 0.00 | 0.00 | 30 | 1008.9 |
| 20260503203503 | 56 | 324 | 6.1 | 20.9 | 0.00 | 0.00 | 0.00 | 29 | 1008.9 |
| 20260503203003 | 55 | 309 | 7.0 | 19.1 | 0.00 | 0.00 | 0.00 | 31 | 1009.3 |
| 20260503202503 | 56 | 313 | 7.0 | 19.1 | 0.00 | 0.00 | 0.00 | 30 | 1009.3 |
| 20260503202003 | 57 | 310 | 5.2 | 15.6 | 0.00 | 0.00 | 0.00 | 29 | 1009.3 |
| 20260503201503 | 58 | 283 | 4.3 | 12.2 | 0.00 | 0.00 | 0.00 | 29 | 1008.9 |
| 20260503201003 | 57 | 288 | 4.3 | 13.0 | 0.00 | 0.00 | 0.00 | 30 | 1008.9 |
| 20260503200503 | 56 | 302 | 4.3 | 13.0 | 0.00 | 0.00 | 0.00 | 31 | 1009.3 |
| 20260503200003 | 56 | 295 | 5.2 | 14.8 | 0.00 | 0.00 | 0.00 | 32 | 1009.3 |
| 20260503195503 | 55 | 316 | 6.1 | 14.8 | 0.00 | 0.00 | 0.00 | 31 | 1008.9 |
| 20260503195003 | 54 | 39 | 5.2 | 14.8 | 0.00 | 0.00 | 0.00 | 32 | 1009.3 |
| 20260503194503 | 54 | 12 | 5.2 | 13.9 | 0.00 | 0.00 | 0.00 | 32 | 1008.9 |
| 20260503194003 | 54 | 317 | 6.1 | 20.0 | 0.00 | 0.00 | 0.00 | 32 | 1008.9 |
| 20260503193503 | 55 | 316 | 6.1 | 20.0 | 0.00 | 0.00 | 0.00 | 31 | 1008.9 |
| 20260503193003 | 56 | 304 | 5.2 | 16.5 | 0.00 | 0.00 | 0.00 | 31 | 1008.9 |
| 20260503192503 | 54 | 304 | 5.2 | 17.4 | 0.00 | 0.00 | 0.00 | 33 | 1008.9 |
| 20260503192003 | 55 | 325 | 6.1 | 17.4 | 0.00 | 0.00 | 0.00 | 30 | 1008.9 |
| 20260503191503 | 55 | 336 | 7.0 | 19.1 | 0.00 | 0.00 | 0.00 | 31 | 1008.9 |
| 20260503191003 | 55 | 339 | 6.1 | 19.1 | 0.00 | 0.00 | 0.00 | 31 | 1008.9 |
| 20260503190503 | 55 | 257 | 5.2 | 13.9 | 0.00 | 0.00 | 0.00 | 31 | 1008.9 |
| 20260503190003 | 56 | 277 | 6.1 | 13.0 | 0.00 | 0.00 | 0.00 | 31 | 1008.9 |
| 20260503185503 | 56 | 292 | 6.1 | 13.9 | 0.00 | 0.00 | 0.00 | 31 | 1008.6 |
| 20260503185003 | 55 | 314 | 5.2 | 13.9 | 0.00 | 0.00 | 0.00 | 31 | 1008.9 |
| 20260503184503 | 55 | 309 | 4.3 | 13.0 | 0.00 | 0.00 | 0.00 | 32 | 1008.9 |
| 20260503184003 | 54 | 328 | 6.1 | 14.8 | 0.00 | 0.00 | 0.00 | 31 | 1008.6 |
| 20260503183503 | 54 | 321 | 6.1 | 16.5 | 0.00 | 0.00 | 0.00 | 30 | 1008.9 |
| 20260503183003 | 55 | 292 | 6.1 | 16.5 | 0.00 | 0.00 | 0.00 | 31 | 1008.9 |
| 20260503182503 | 55 | 311 | 7.0 | 15.6 | 0.00 | 0.00 | 0.00 | 30 | 1008.9 |
| 20260503182004 | 55 | 316 | 6.1 | 13.0 | 0.00 | 0.00 | 0.00 | 30 | 1008.9 |
| 20260503181504 | 55 | 303 | 6.1 | 13.0 | 0.00 | 0.01 | 0.00 | 30 | 1008.6 |
| 20260503181004 | 54 | 334 | 6.1 | 13.9 | 0.00 | 0.01 | 0.00 | 30 | 1008.9 |
| 20260503180503 | 55 | 12 | 5.2 | 14.8 | 0.00 | 0.01 | 0.00 | 30 | 1008.6 |
| 20260503180004 | 56 | 338 | 3.5 | 14.8 | 0.00 | 0.01 | 0.00 | 31 | 1008.9 |